TITAN 3C TRANSTAGE DEB, 2789

Orbit data source: Space-Track

TITAN 3C TRANSTAGE DEB, 2789 is space debris in LEO originally from a launch on Fri, 15 Oct 1965 UTC launched from the Air Force Eastern Test Range (AFETR). Debris objects in space refer to the collection of defunct objects orbiting the Earth. Examples of debris include non-operational satellites, rocket bodies, and fragments generated from explosions, collisions, or faulty payload assembly.

Loading next visibility...
Identifier
2789, 1965-082KR
Orbit
LEO
Country
Flag of USUS
Related business
Manufacturer
Unknown
Mission
Spacecraft
Bus & Motor
Unknown
Mass
Unknown
Launch date (UTC)
1965-10-15 (60 years ago)
Launch vehicle
Unknown
Launch site
Air Force Eastern Test Range (AFETR)
Object type
Payload
Rocket body
Debris
Shape & HBR
Unknown
Radar Cross Section
Small (<0.1 m²)

Expand to show TLE details & history
Last TLE update: 2 days ago

TLE from 2 days ago
0 TITAN 3C TRANSTAGE DEB
1 02789U 65082KR  25260.49968906  .00099535  00000-0  27548-2 0  9992
2 02789  32.2675  20.8074 0017154 286.4763  73.4021 15.35480491 39793
Epoch: 2025-09-17T11:59Z
TLE epoch observation values (Epoch: 2025-09-17T11:59:33.134Z)
Latitude
-0.00002°
Longitude
-155.75545°
Altitude
454.782 km
Speed
7.644 km/s
True Right ascension
01h 23m 13s
True Declination
0° 00' 00"
Sunlit
Object was in full shadow at epoch
Visualization orbit readout
Latitude
Unknown
Longitude
Unknown
Altitude
Unknown
Speed
Unknown
Apparent Right ascension
Unknown
Apparent Declination
Unknown
Sunlit
N/A
Visualization observer readout
Local Sidereal Time
22:34:41
Azimuth
Unknown
Elevation
Unknown
Doppler factor
Unknown
Orbital elements
Apogee altitude
474.922 km
Perigee altitude
451.451 km
Semi-major axis
6,841.324 km
Eccentricity
0.00172
Inclination
32.2675°
RAAN
20.8074°
Arg. of periapsis
286.4763°
True anomaly
73.59059°
Mean anomaly
73.4021°
Eccentric anomaly
73.49634°
Mean motion
3.8356 °/min
Orbital period
93.86 mins
BSTAR
0.0027548
Loading maneuver chart data...
Computing Atmospheric mass density...

Documentation

Showing up to 5 results
|